Location: Capelle
(50.3413°N, 1.9974°E)
Time: 00:34:44
(UTC+00:00)

CARTOSAT-1 - Pass Details

Date: 12 January 2026
Orbit: 594 x 598 km, 97.5° (Epoch: 9 February)

Event Time Altitude Azimuth Distance (km) Brightness Sun altitude
Rises 18:29:31 0° 164° (SSE) 2,833 6.9 -21.0°
Reaches altitude 10° 18:31:40 10° 164° (SSE) 1,935 6.0 -21.3°
Maximum altitude 18:35:53 87° 77° (ENE) 607 3.3 -22.0°
Drops below altitude 10° 18:40:07 10° 347° (NNW) 1,950 6.2 -22.6°
Sets 18:42:18 0° 347° (NNW) 2,856 7.0 -23.0°
